Time,TemperatureF,DewpointF,PressureIn,WindDirection,WindDirectionDegrees,WindSpeedMPH,WindSpeedGustMPH,Humidity,HourlyPrecipIn,Conditions,Clouds,dailyrainin,SolarRadiationWatts/m^2,SoftwareType,DateUTC
2013-01-13 00:02:00,40.6,34.3,30.18,WSW,248,0.0,0.0,78,0.00,CLR,,0.00,0.0,WeatherDisplay:10.37,2013-01-13 08:02:00,
2013-01-13 00:07:00,40.6,34.3,30.18,WSW,248,0.0,0.0,78,0.00,CLR,,0.00,0.0,WeatherDisplay:10.37,2013-01-13 08:07:00,
2013-01-13 00:12:00,40.5,34.5,30.18,WSW,248,0.0,0.0,79,0.00,CLR,,0.00,0.0,WeatherDisplay:10.37,2013-01-13 08:12:00,
2013-01-13 00:17:00,40.5,34.5,30.18,WSW,248,0.0,0.0,79,0.00,CLR,,0.00,0.0,WeatherDisplay:10.37,2013-01-13 08:17:00,
2013-01-13 00:22:00,40.5,34.8,30.18,WSW,248,0.0,0.0,80,0.00,CLR,,0.00,0.0,WeatherDisplay:10.37,2013-01-13 08:22:00,
2013-01-13 00:27:00,40.5,34.8,30.17,WSW,248,0.0,0.0,80,0.00,CLR,,0.00,0.0,WeatherDisplay:10.37,2013-01-13 08:27:00,
2013-01-13 00:32:00,40.1,34.1,30.17,WSW,248,0.0,0.0,79,0.00,CLR,,0.00,0.0,WeatherDisplay:10.37,2013-01-13 08:32:00,
2013-01-13 00:37:00,39.9,33.6,30.17,WSW,248,0.0,0.0,78,0.00,CLR,,0.00,0.0,WeatherDisplay:10.37,2013-01-13 08:37:00,
2013-01-13 00:43:00,39.6,32.9,30.17,WSW,248,0.0,0.0,77,0.00,CLR,,0.00,0.0,WeatherDisplay:10.37,2013-01-13 08:43:00,
2013-01-13 00:48:00,39.2,32.3,30.19,WSW,248,0.0,0.0,76,0.00,CLR,,0.00,0.0,WeatherDisplay:10.37,2013-01-13 08:48:00,
2013-01-13 00:53:00,39.2,32.6,30.19,WSW,248,0.0,0.0,77,0.00,CLR,,0.00,0.0,WeatherDisplay:10.37,2013-01-13 08:53:00,
2013-01-13 00:58:00,39.2,32.3,30.19,WSW,248,0.0,0.0,76,0.00,CLR,,0.00,0.0,WeatherDisplay:10.37,2013-01-13 08:58:00,
2013-01-13 01:03:00,39.2,32.3,30.19,WSW,248,0.0,0.0,76,0.00,CLR,,0.00,0.0,WeatherDisplay:10.37,2013-01-13 09:03:00,
2013-01-13 01:08:00,39.2,32.3,30.19,WSW,248,0.0,0.0,76,0.00,CLR,,0.00,0.0,WeatherDisplay:10.37,2013-01-13 09:08:00,
2013-01-13 01:14:00,39.0,32.1,30.19,WSW,248,0.0,0.0,76,0.00,CLR,,0.00,0.0,WeatherDisplay:10.37,2013-01-13 09:14:00,
2013-01-13 01:19:00,39.0,32.1,30.19,WSW,248,0.0,0.0,76,0.00,CLR,,0.00,0.0,WeatherDisplay:10.37,2013-01-13 09:19:00,
2013-01-13 01:24:00,39.0,31.8,30.19,WSW,248,0.0,0.0,75,0.00,CLR,,0.00,0.0,WeatherDisplay:10.37,2013-01-13 09:24:00,
2013-01-13 01:29:00,38.7,31.7,30.19,WSW,248,0.0,0.0,76,0.00,CLR,,0.00,0.0,WeatherDisplay:10.37,2013-01-13 09:29:00,
2013-01-13 01:34:00,38.5,31.6,30.19,WSW,248,0.0,0.0,76,0.00,CLR,,0.00,0.0,WeatherDisplay:10.37,2013-01-13 09:34:00,
2013-01-13 01:39:00,38.3,31.4,30.19,WSW,248,0.0,0.0,76,0.00,CLR,,0.00,0.0,WeatherDisplay:10.37,2013-01-13 09:39:00,
2013-01-13 01:44:00,38.3,31.4,30.19,WSW,248,0.0,0.0,76,0.00,CLR,,0.00,0.0,WeatherDisplay:10.37,2013-01-13 09:44:00,
2013-01-13 01:49:00,37.9,31.0,30.19,WSW,248,0.0,0.0,76,0.00,CLR,,0.00,0.0,WeatherDisplay:10.37,2013-01-13 09:49:00,
2013-01-13 01:55:00,37.8,30.9,30.19,WSW,248,0.0,0.0,76,0.00,CLR,,0.00,0.0,WeatherDisplay:10.37,2013-01-13 09:55:00,
2013-01-13 02:00:00,37.8,30.9,30.19,WSW,248,0.0,0.0,76,0.00,CLR,,0.00,0.0,WeatherDisplay:10.37,2013-01-13 10:00:00,
2013-01-13 02:05:00,37.6,31.0,30.19,WSW,248,0.0,0.0,77,0.00,CLR,,0.00,0.0,WeatherDisplay:10.37,2013-01-13 10:05:00,
2013-01-13 02:10:00,37.6,31.0,30.19,WSW,248,0.0,0.0,77,0.00,CLR,,0.00,0.0,WeatherDisplay:10.37,2013-01-13 10:10:00,
2013-01-13 02:15:00,37.4,31.2,30.19,WSW,248,0.0,0.0,78,0.00,CLR,,0.00,0.0,WeatherDisplay:10.37,2013-01-13 10:15:00,
2013-01-13 02:21:00,37.6,31.3,30.19,WSW,248,0.0,0.0,78,0.00,CLR,,0.00,0.0,WeatherDisplay:10.37,2013-01-13 10:21:00,
2013-01-13 02:26:00,37.6,31.0,30.20,WSW,248,0.0,0.0,77,0.00,CLR,,0.00,0.0,WeatherDisplay:10.37,2013-01-13 10:26:00,
2013-01-13 02:31:00,37.6,31.0,30.20,WSW,248,0.0,0.0,77,0.00,CLR,,0.00,0.0,WeatherDisplay:10.37,2013-01-13 10:31:00,
2013-01-13 02:36:00,37.2,30.7,30.20,WSW,248,0.0,0.0,77,0.00,CLR,,0.00,0.0,WeatherDisplay:10.37,2013-01-13 10:36:00,
2013-01-13 02:41:00,37.0,30.5,30.20,WSW,248,0.0,0.0,77,0.00,CLR,,0.00,0.0,WeatherDisplay:10.37,2013-01-13 10:41:00,
2013-01-13 02:46:00,37.2,30.7,30.22,WSW,248,0.0,0.0,77,0.00,CLR,,0.00,0.0,WeatherDisplay:10.37,2013-01-13 10:46:00,
2013-01-13 02:52:00,37.0,30.8,30.22,WSW,248,0.0,0.0,78,0.00,CLR,,0.00,0.0,WeatherDisplay:10.37,2013-01-13 10:52:00,
2013-01-13 02:57:00,37.0,30.8,30.22,WSW,248,0.0,0.0,78,0.00,CLR,,0.00,0.0,WeatherDisplay:10.37,2013-01-13 10:57:00,
2013-01-13 03:02:00,36.9,30.6,30.22,WSW,248,0.0,0.0,78,0.00,CLR,,0.00,0.0,WeatherDisplay:10.37,2013-01-13 11:02:00,
2013-01-13 03:07:00,36.9,30.6,30.21,WSW,248,0.0,0.0,78,0.00,CLR,,0.00,0.0,WeatherDisplay:10.37,2013-01-13 11:07:00,
2013-01-13 03:12:00,37.0,30.8,30.21,WSW,248,0.0,0.0,78,0.00,CLR,,0.00,0.0,WeatherDisplay:10.37,2013-01-13 11:12:00,
2013-01-13 03:17:00,36.9,30.6,30.21,WSW,248,0.0,0.0,78,0.00,CLR,,0.00,0.0,WeatherDisplay:10.37,2013-01-13 11:17:00,
2013-01-13 03:22:00,36.9,30.6,30.21,WSW,248,0.0,0.0,78,0.00,CLR,,0.00,0.0,WeatherDisplay:10.37,2013-01-13 11:22:00,
2013-01-13 03:27:00,36.5,30.3,30.21,WSW,248,0.0,0.0,78,0.00,CLR,,0.00,0.0,WeatherDisplay:10.37,2013-01-13 11:27:00,
2013-01-13 03:33:00,36.9,30.6,30.21,WSW,248,0.0,0.0,78,0.00,CLR,,0.00,0.0,WeatherDisplay:10.37,2013-01-13 11:33:00,
2013-01-13 03:38:00,36.9,30.6,30.21,WSW,248,0.0,0.0,78,0.00,CLR,,0.00,0.0,WeatherDisplay:10.37,2013-01-13 11:38:00,
2013-01-13 03:43:00,36.7,30.5,30.21,WSW,248,0.0,0.0,78,0.00,CLR,,0.00,0.0,WeatherDisplay:10.37,2013-01-13 11:43:00,
2013-01-13 03:48:00,36.9,30.6,30.21,WSW,248,0.0,0.0,78,0.00,CLR,,0.00,0.0,WeatherDisplay:10.37,2013-01-13 11:48:00,
2013-01-13 03:53:00,36.9,30.6,30.21,WSW,248,0.0,0.0,78,0.00,CLR,,0.00,0.0,WeatherDisplay:10.37,2013-01-13 11:53:00,
2013-01-13 03:59:00,36.7,30.5,30.21,WSW,248,0.0,0.0,78,0.00,CLR,,0.00,0.0,WeatherDisplay:10.37,2013-01-13 11:59:00,
2013-01-13 04:04:00,36.5,30.3,30.21,WSW,248,0.0,0.0,78,0.00,CLR,,0.00,0.0,WeatherDisplay:10.37,2013-01-13 12:04:00,
2013-01-13 04:09:00,36.5,30.6,30.20,WSW,248,0.0,0.0,79,0.00,CLR,,0.00,0.0,WeatherDisplay:10.37,2013-01-13 12:09:00,
2013-01-13 04:14:00,36.5,30.6,30.20,WSW,248,0.0,0.0,79,0.00,CLR,,0.00,0.0,WeatherDisplay:10.37,2013-01-13 12:14:00,
2013-01-13 04:19:00,36.5,30.3,30.20,WSW,248,0.0,0.0,78,0.00,CLR,,0.00,0.0,WeatherDisplay:10.37,2013-01-13 12:19:00,
2013-01-13 04:24:00,36.3,30.1,30.20,WSW,248,0.0,0.0,78,0.00,CLR,,0.00,0.0,WeatherDisplay:10.37,2013-01-13 12:24:00,
2013-01-13 04:29:00,36.0,29.8,30.19,WSW,248,0.0,0.0,78,0.00,CLR,,0.00,0.0,WeatherDisplay:10.37,2013-01-13 12:29:00,
2013-01-13 04:35:00,35.8,29.6,30.19,WSW,248,0.0,0.0,78,0.00,CLR,,0.00,0.0,WeatherDisplay:10.37,2013-01-13 12:35:00,
2013-01-13 04:40:00,35.6,29.4,30.19,WSW,248,0.0,0.0,78,0.00,CLR,,0.00,0.0,WeatherDisplay:10.37,2013-01-13 12:40:00,
2013-01-13 04:45:00,35.6,29.7,30.19,WSW,248,0.0,0.0,79,0.00,CLR,,0.00,0.0,WeatherDisplay:10.37,2013-01-13 12:45:00,
2013-01-13 04:50:00,35.6,29.7,30.19,WSW,248,0.0,0.0,79,0.00,CLR,,0.00,0.0,WeatherDisplay:10.37,2013-01-13 12:50:00,
2013-01-13 04:55:00,35.8,30.2,30.19,WSW,248,0.0,0.0,80,0.00,CLR,,0.00,0.0,WeatherDisplay:10.37,2013-01-13 12:55:00,
2013-01-13 05:01:00,36.1,30.9,30.19,WSW,248,0.0,0.0,81,0.00,CLR,,0.00,0.0,WeatherDisplay:10.37,2013-01-13 13:01:00,
2013-01-13 05:06:00,36.1,30.6,30.18,WSW,248,0.0,0.0,80,0.00,CLR,,0.00,0.0,WeatherDisplay:10.37,2013-01-13 13:06:00,
2013-01-13 05:11:00,36.1,30.6,30.18,WSW,248,0.0,0.0,80,0.00,CLR,,0.00,0.0,WeatherDisplay:10.37,2013-01-13 13:11:00,
2013-01-13 05:16:00,36.1,30.6,30.18,WSW,248,0.0,0.0,80,0.00,CLR,,0.00,0.0,WeatherDisplay:10.37,2013-01-13 13:16:00,
2013-01-13 05:21:00,36.1,30.3,30.18,WSW,248,0.0,0.0,79,0.00,CLR,,0.00,0.0,WeatherDisplay:10.37,2013-01-13 13:21:00,
2013-01-13 05:26:00,36.1,30.6,30.19,WSW,248,0.0,0.0,80,0.00,CLR,,0.00,0.0,WeatherDisplay:10.37,2013-01-13 13:26:00,
2013-01-13 05:31:00,36.1,30.9,30.19,WSW,248,0.0,0.0,81,0.00,CLR,,0.00,0.0,WeatherDisplay:10.37,2013-01-13 13:31:00,
2013-01-13 05:36:00,36.1,30.6,30.19,WSW,248,0.0,0.0,80,0.00,CLR,,0.00,0.0,WeatherDisplay:10.37,2013-01-13 13:36:00,
2013-01-13 05:42:00,36.0,30.4,30.19,WSW,248,0.0,0.0,80,0.00,CLR,,0.00,0.0,WeatherDisplay:10.37,2013-01-13 13:42:00,
2013-01-13 05:47:00,36.1,30.6,30.19,WSW,248,0.0,0.0,80,0.00,CLR,,0.00,0.0,WeatherDisplay:10.37,2013-01-13 13:47:00,
2013-01-13 05:52:00,36.1,30.9,30.19,WSW,248,0.0,0.0,81,0.00,CLR,,0.00,0.0,WeatherDisplay:10.37,2013-01-13 13:52:00,
2013-01-13 05:57:00,36.0,30.4,30.19,WSW,248,0.0,0.0,80,0.00,CLR,,0.00,0.0,WeatherDisplay:10.37,2013-01-13 13:57:00,
2013-01-13 06:03:00,36.1,30.3,30.19,WSW,248,0.0,0.0,79,0.00,CLR,,0.00,0.0,WeatherDisplay:10.37,2013-01-13 14:03:00,
2013-01-13 06:08:00,36.1,30.3,30.20,WSW,248,0.0,0.0,79,0.00,CLR,,0.00,0.0,WeatherDisplay:10.37,2013-01-13 14:08:00,
2013-01-13 06:13:00,36.0,30.4,30.20,WSW,248,0.0,0.0,80,0.00,CLR,,0.00,0.0,WeatherDisplay:10.37,2013-01-13 14:13:00,
2013-01-13 06:18:00,35.8,29.9,30.20,WSW,248,0.0,0.0,79,0.00,CLR,,0.00,0.0,WeatherDisplay:10.37,2013-01-13 14:18:00,
2013-01-13 06:23:00,35.6,29.7,30.20,WSW,248,0.0,0.0,79,0.00,CLR,,0.00,0.0,WeatherDisplay:10.37,2013-01-13 14:23:00,
2013-01-13 06:28:00,35.8,29.6,30.20,WSW,248,0.0,0.0,78,0.00,CLR,,0.00,0.0,WeatherDisplay:10.37,2013-01-13 14:28:00,
2013-01-13 06:33:00,35.8,29.6,30.20,WSW,248,0.0,0.0,78,0.00,CLR,,0.00,0.0,WeatherDisplay:10.37,2013-01-13 14:33:00,
2013-01-13 06:38:00,35.8,29.3,30.20,WSW,248,0.0,0.0,77,0.00,CLR,,0.00,0.0,WeatherDisplay:10.37,2013-01-13 14:38:00,
2013-01-13 06:44:00,35.8,29.0,30.20,WSW,248,0.0,0.0,76,0.00,CLR,,0.00,0.0,WeatherDisplay:10.37,2013-01-13 14:44:00,
2013-01-13 06:49:00,36.1,29.3,30.21,WSW,248,0.0,0.0,76,0.00,CLR,,0.00,0.0,WeatherDisplay:10.37,2013-01-13 14:49:00,
2013-01-13 06:54:00,36.3,29.2,30.21,WSW,248,0.0,0.0,75,0.00,CLR,,0.00,0.0,WeatherDisplay:10.37,2013-01-13 14:54:00,
2013-01-13 06:59:00,36.3,29.2,30.21,WSW,248,0.0,0.0,75,0.00,CLR,,0.00,0.0,WeatherDisplay:10.37,2013-01-13 14:59:00,
2013-01-13 07:04:00,36.3,28.8,30.21,WSW,248,0.0,0.0,74,0.00,OVC,,0.00,0.0,WeatherDisplay:10.37,2013-01-13 15:04:00,
2013-01-13 07:09:00,36.1,28.3,30.21,WSW,248,0.0,0.0,73,0.00,OVC,,0.00,0.0,WeatherDisplay:10.37,2013-01-13 15:09:00,
2013-01-13 07:15:00,36.0,27.8,30.21,WSW,248,0.0,0.0,72,0.00,OVC,,0.00,0.0,WeatherDisplay:10.37,2013-01-13 15:15:00,
2013-01-13 07:20:00,36.1,28.6,30.21,WSW,248,0.0,0.0,74,0.00,OVC,,0.00,0.0,WeatherDisplay:10.37,2013-01-13 15:20:00,
2013-01-13 07:25:00,35.8,28.3,30.21,WSW,248,0.0,0.0,74,0.00,OVC,,0.00,0.0,WeatherDisplay:10.37,2013-01-13 15:25:00,
2013-01-13 07:30:00,35.8,28.3,30.23,WSW,248,0.0,0.0,74,0.00,OVC,,0.00,0.0,WeatherDisplay:10.37,2013-01-13 15:30:00,
2013-01-13 07:35:00,35.6,28.1,30.23,WSW,248,0.0,0.0,74,0.00,OVC,,0.00,0.0,WeatherDisplay:10.37,2013-01-13 15:35:00,
2013-01-13 07:40:00,35.8,29.0,30.23,WSW,248,0.0,0.0,76,0.00,OVC,,0.00,0.0,WeatherDisplay:10.37,2013-01-13 15:40:00,
2013-01-13 07:46:00,36.1,29.3,30.24,WSW,248,0.0,0.0,76,0.00,OVC,,0.00,0.0,WeatherDisplay:10.37,2013-01-13 15:46:00,
2013-01-13 07:51:00,36.0,28.8,30.24,WSW,248,0.0,0.0,75,0.00,OVC,,0.00,0.0,WeatherDisplay:10.37,2013-01-13 15:51:00,
2013-01-13 07:56:00,36.1,29.0,30.24,WSW,248,0.0,0.0,75,0.00,OVC,,0.00,0.0,WeatherDisplay:10.37,2013-01-13 15:56:00,
2013-01-13 08:01:00,36.3,29.2,30.24,WSW,248,0.0,0.0,75,0.00,OVC,,0.00,0.0,WeatherDisplay:10.37,2013-01-13 16:01:00,
2013-01-13 08:06:00,36.5,29.0,30.24,WSW,248,0.0,0.0,74,0.00,OVC,,0.00,0.0,WeatherDisplay:10.37,2013-01-13 16:06:00,
2013-01-13 08:12:00,36.9,28.7,30.24,WSW,248,0.0,0.0,72,0.00,OVC,,0.00,0.0,WeatherDisplay:10.37,2013-01-13 16:12:00,
2013-01-13 08:17:00,36.9,28.7,30.24,WSW,248,0.0,0.0,72,0.00,OVC,,0.00,0.0,WeatherDisplay:10.37,2013-01-13 16:17:00,
2013-01-13 08:22:00,36.9,28.7,30.24,WSW,248,0.0,0.0,72,0.00,OVC,,0.00,0.0,WeatherDisplay:10.37,2013-01-13 16:22:00,
2013-01-13 08:27:00,36.9,29.0,30.23,WSW,248,0.0,0.0,73,0.00,OVC,,0.00,0.0,WeatherDisplay:10.37,2013-01-13 16:27:00,
2013-01-13 08:32:00,37.0,29.8,30.23,WSW,248,0.0,0.0,75,0.00,OVC,,0.00,0.0,WeatherDisplay:10.37,2013-01-13 16:32:00,
2013-01-13 08:37:00,37.2,30.0,30.23,WSW,248,0.0,0.0,75,0.00,OVC,,0.00,0.0,WeatherDisplay:10.37,2013-01-13 16:37:00,
2013-01-13 08:43:00,37.6,30.4,30.23,WSW,248,0.0,0.0,75,0.00,OVC,,0.00,0.0,WeatherDisplay:10.37,2013-01-13 16:43:00,
2013-01-13 08:48:00,37.8,30.5,30.24,WSW,248,0.0,0.0,75,0.00,OVC,,0.00,0.0,WeatherDisplay:10.37,2013-01-13 16:48:00,
2013-01-13 08:53:00,37.9,30.7,30.24,WSW,248,0.0,0.0,75,0.00,OVC,,0.00,0.0,WeatherDisplay:10.37,2013-01-13 16:53:00,
2013-01-13 08:58:00,38.1,31.2,30.24,WSW,248,0.0,0.0,76,0.00,OVC,,0.00,0.0,WeatherDisplay:10.37,2013-01-13 16:58:00,
2013-01-13 09:03:00,38.5,31.6,30.24,WSW,248,0.0,0.0,76,0.00,OVC,,0.00,0.0,WeatherDisplay:10.37,2013-01-13 17:03:00,
2013-01-13 09:08:00,39.0,32.1,30.25,WSW,248,0.0,0.0,76,0.00,OVC,,0.00,0.0,WeatherDisplay:10.37,2013-01-13 17:08:00,
2013-01-13 09:13:00,39.2,32.3,30.25,WSW,248,0.0,0.0,76,0.00,OVC,,0.00,0.0,WeatherDisplay:10.37,2013-01-13 17:13:00,
2013-01-13 09:18:00,39.7,32.5,30.25,WSW,248,0.0,0.0,75,0.00,OVC,,0.00,0.0,WeatherDisplay:10.37,2013-01-13 17:18:00,
2013-01-13 09:24:00,39.9,32.6,30.25,WSW,248,0.0,0.0,75,0.00,OVC,,0.00,0.0,WeatherDisplay:10.37,2013-01-13 17:24:00,
2013-01-13 09:29:00,40.3,32.3,30.25,WSW,248,0.0,0.0,73,0.00,OVC,,0.00,0.0,WeatherDisplay:10.37,2013-01-13 17:29:00,
2013-01-13 09:34:00,40.8,32.1,30.25,WSW,248,0.0,0.0,71,0.00,OVC,,0.00,0.0,WeatherDisplay:10.37,2013-01-13 17:34:00,
2013-01-13 09:39:00,41.2,32.1,30.25,WSW,248,0.0,0.0,70,0.00,OVC,,0.00,0.0,WeatherDisplay:10.37,2013-01-13 17:39:00,
2013-01-13 09:44:00,41.7,31.9,30.25,WSW,248,0.0,0.0,68,0.00,OVC,,0.00,0.0,WeatherDisplay:10.37,2013-01-13 17:44:00,
2013-01-13 09:49:00,42.3,31.7,30.25,WSW,248,0.0,0.0,66,0.00,OVC,,0.00,0.0,WeatherDisplay:10.37,2013-01-13 17:49:00,
2013-01-13 09:54:00,43.0,32.0,30.25,WSW,248,0.0,0.0,65,0.00,OVC,,0.00,0.0,WeatherDisplay:10.37,2013-01-13 17:54:00,
2013-01-13 10:00:00,43.3,32.0,30.25,WSW,248,0.0,0.0,64,0.00,OVC,,0.00,0.0,WeatherDisplay:10.37,2013-01-13 18:00:00,
2013-01-13 10:05:00,44.1,32.3,30.25,WSW,248,0.0,0.0,63,0.00,OVC,,0.00,0.0,WeatherDisplay:10.37,2013-01-13 18:05:00,
2013-01-13 10:10:00,44.2,32.8,30.25,WSW,248,0.0,0.0,64,0.00,OVC,,0.00,0.0,WeatherDisplay:10.37,2013-01-13 18:10:00,
2013-01-13 10:16:00,44.8,33.7,30.25,WSW,248,0.0,0.0,65,0.00,OVC,,0.00,0.0,WeatherDisplay:10.37,2013-01-13 18:16:00,
2013-01-13 10:21:00,45.0,33.9,30.25,WSW,248,0.0,0.0,65,0.00,OVC,,0.00,0.0,WeatherDisplay:10.37,2013-01-13 18:21:00,
2013-01-13 10:26:00,45.5,34.0,30.24,WSW,248,0.0,0.0,64,0.00,OVC,,0.00,0.0,WeatherDisplay:10.37,2013-01-13 18:26:00,
2013-01-13 10:31:00,45.9,34.0,30.24,WSW,248,0.0,0.0,63,0.00,OVC,,0.00,0.0,WeatherDisplay:10.37,2013-01-13 18:31:00,
2013-01-13 10:36:00,45.9,34.0,30.24,WSW,248,0.0,0.0,63,0.00,OVC,,0.00,0.0,WeatherDisplay:10.37,2013-01-13 18:36:00,
2013-01-13 10:41:00,46.0,33.7,30.24,WSW,248,0.0,0.0,62,0.00,OVC,,0.00,0.0,WeatherDisplay:10.37,2013-01-13 18:41:00,
2013-01-13 10:46:00,46.2,33.9,30.22,WSW,248,0.0,0.0,62,0.00,OVC,,0.00,0.0,WeatherDisplay:10.37,2013-01-13 18:46:00,
2013-01-13 10:51:00,46.4,34.1,30.22,WSW,248,0.0,0.0,62,0.00,OVC,,0.00,0.0,WeatherDisplay:10.37,2013-01-13 18:51:00,
2013-01-13 10:56:00,46.6,33.8,30.22,WSW,248,0.0,0.0,61,0.00,OVC,,0.00,0.0,WeatherDisplay:10.37,2013-01-13 18:56:00,
2013-01-13 11:02:00,46.9,34.2,30.22,WSW,248,0.0,0.0,61,0.00,OVC,,0.00,0.0,WeatherDisplay:10.37,2013-01-13 19:02:00,
2013-01-13 11:07:00,47.1,34.4,30.22,WSW,248,0.0,0.0,61,0.00,OVC,,0.00,0.0,WeatherDisplay:10.37,2013-01-13 19:07:00,
2013-01-13 11:12:00,47.3,34.5,30.22,WSW,248,0.0,0.0,61,0.00,OVC,,0.00,0.0,WeatherDisplay:10.37,2013-01-13 19:12:00,
2013-01-13 11:17:00,47.3,34.5,30.22,WSW,248,0.0,0.0,61,0.00,OVC,,0.00,0.0,WeatherDisplay:10.37,2013-01-13 19:17:00,
2013-01-13 11:22:00,47.7,35.3,30.22,WSW,248,0.0,0.0,62,0.00,OVC,,0.00,0.0,WeatherDisplay:10.37,2013-01-13 19:22:00,
2013-01-13 11:27:00,47.5,34.7,30.21,WSW,248,0.0,0.0,61,0.00,OVC,,0.00,0.0,WeatherDisplay:10.37,2013-01-13 19:27:00,
2013-01-13 11:32:00,47.7,35.3,30.21,WSW,248,0.0,0.0,62,0.00,OVC,,0.00,0.0,WeatherDisplay:10.37,2013-01-13 19:32:00,
2013-01-13 11:37:00,47.8,35.4,30.21,WSW,248,0.0,0.0,62,0.00,OVC,,0.00,0.0,WeatherDisplay:10.37,2013-01-13 19:37:00,
2013-01-13 11:43:00,48.0,36.0,30.21,WSW,248,0.0,0.0,63,0.00,OVC,,0.00,0.0,WeatherDisplay:10.37,2013-01-13 19:43:00,
2013-01-13 11:48:00,48.4,36.0,30.19,WSW,248,0.0,0.0,62,0.00,OVC,,0.00,0.0,WeatherDisplay:10.37,2013-01-13 19:48:00,
2013-01-13 11:53:00,48.4,36.0,30.19,WSW,248,0.0,0.0,62,0.00,OVC,,0.00,0.0,WeatherDisplay:10.37,2013-01-13 19:53:00,
2013-01-13 11:58:00,48.7,36.3,30.19,WSW,248,0.0,0.0,62,0.00,OVC,,0.00,0.0,WeatherDisplay:10.37,2013-01-13 19:58:00,
2013-01-13 12:03:00,49.1,37.0,30.19,WSW,248,0.0,0.0,63,0.00,OVC,,0.00,0.0,WeatherDisplay:10.37,2013-01-13 20:03:00,
2013-01-13 12:09:00,49.1,37.0,30.18,WSW,248,0.0,0.0,63,0.00,OVC,,0.00,0.0,WeatherDisplay:10.37,2013-01-13 20:09:00,
2013-01-13 12:14:00,49.5,37.0,30.18,WSW,248,0.0,0.0,62,0.00,OVC,,0.00,0.0,WeatherDisplay:10.37,2013-01-13 20:14:00,
2013-01-13 12:19:00,49.5,37.0,30.18,WSW,248,0.0,0.0,62,0.00,OVC,,0.00,0.0,WeatherDisplay:10.37,2013-01-13 20:19:00,
2013-01-13 12:24:00,49.5,37.0,30.18,WSW,248,0.0,0.0,62,0.00,OVC,,0.00,0.0,WeatherDisplay:10.37,2013-01-13 20:24:00,
2013-01-13 12:29:00,49.8,37.7,30.18,WSW,248,0.0,0.0,63,0.00,OVC,,0.00,0.0,WeatherDisplay:10.37,2013-01-13 20:29:00,
2013-01-13 12:34:00,49.8,37.3,30.18,WSW,248,0.0,0.0,62,0.00,OVC,,0.00,0.0,WeatherDisplay:10.37,2013-01-13 20:34:00,
2013-01-13 12:40:00,50.2,37.7,30.18,WSW,248,0.0,0.0,62,0.00,OVC,,0.00,0.0,WeatherDisplay:10.37,2013-01-13 20:40:00,
2013-01-13 12:45:00,50.2,37.2,30.18,WSW,248,0.0,0.0,61,0.00,OVC,,0.00,0.0,WeatherDisplay:10.37,2013-01-13 20:45:00,
2013-01-13 12:50:00,50.7,38.2,30.17,WSW,248,0.0,0.0,62,0.00,OVC,,0.00,0.0,WeatherDisplay:10.37,2013-01-13 20:50:00,
2013-01-13 12:55:00,50.7,37.8,30.17,WSW,248,0.0,0.0,61,0.00,OVC,,0.00,0.0,WeatherDisplay:10.37,2013-01-13 20:55:00,
2013-01-13 13:00:00,51.3,37.4,30.17,WSW,248,0.0,0.0,59,0.00,OVC,,0.00,0.0,WeatherDisplay:10.37,2013-01-13 21:00:00,
2013-01-13 13:05:00,51.3,37.0,30.17,WSW,248,0.0,0.0,58,0.00,OVC,,0.00,0.0,WeatherDisplay:10.37,2013-01-13 21:05:00,
2013-01-13 13:10:00,51.4,37.6,30.17,WSW,248,0.0,0.0,59,0.00,OVC,,0.00,0.0,WeatherDisplay:10.37,2013-01-13 21:10:00,
2013-01-13 13:15:00,51.8,37.5,30.17,WSW,248,0.0,0.0,58,0.00,OVC,,0.00,0.0,WeatherDisplay:10.37,2013-01-13 21:15:00,
2013-01-13 13:20:00,52.0,37.7,30.17,WSW,248,0.0,0.0,58,0.00,OVC,,0.00,0.0,WeatherDisplay:10.37,2013-01-13 21:20:00,
2013-01-13 13:25:00,51.6,36.4,30.17,WSW,248,0.0,0.0,56,0.00,OVC,,0.00,0.0,WeatherDisplay:10.37,2013-01-13 21:25:00,
2013-01-13 13:31:00,52.0,37.2,30.16,WSW,248,0.0,0.0,57,0.00,OVC,,0.00,0.0,WeatherDisplay:10.37,2013-01-13 21:31:00,
2013-01-13 13:36:00,52.0,36.8,30.16,WSW,248,0.0,0.0,56,0.00,OVC,,0.00,0.0,WeatherDisplay:10.37,2013-01-13 21:36:00,
2013-01-13 13:41:00,52.2,36.9,30.16,WSW,248,0.0,0.0,56,0.00,OVC,,0.00,0.0,WeatherDisplay:10.37,2013-01-13 21:41:00,
2013-01-13 13:46:00,52.2,36.9,30.16,WSW,248,0.0,0.0,56,0.00,OVC,,0.00,0.0,WeatherDisplay:10.37,2013-01-13 21:46:00,
2013-01-13 13:51:00,52.3,37.1,30.16,WSW,248,0.0,0.0,56,0.00,OVC,,0.00,0.0,WeatherDisplay:10.37,2013-01-13 21:51:00,
2013-01-13 13:56:00,52.3,37.1,30.16,WSW,248,0.0,0.0,56,0.00,OVC,,0.00,0.0,WeatherDisplay:10.37,2013-01-13 21:56:00,
2013-01-13 14:01:00,52.7,37.9,30.16,WSW,248,0.0,0.0,57,0.00,OVC,,0.00,0.0,WeatherDisplay:10.37,2013-01-13 22:01:00,
2013-01-13 14:06:00,52.7,37.9,30.16,WSW,248,0.0,0.0,57,0.00,OVC,,0.00,0.0,WeatherDisplay:10.37,2013-01-13 22:06:00,
2013-01-13 14:11:00,52.9,38.1,30.16,WSW,248,0.0,0.0,57,0.00,OVC,,0.00,0.0,WeatherDisplay:10.37,2013-01-13 22:11:00,
2013-01-13 14:16:00,52.9,37.6,30.16,WSW,248,0.0,0.0,56,0.00,OVC,,0.00,0.0,WeatherDisplay:10.37,2013-01-13 22:16:00,
2013-01-13 14:22:00,52.9,37.6,30.16,WSW,248,0.0,0.0,56,0.00,OVC,,0.00,0.0,WeatherDisplay:10.37,2013-01-13 22:22:00,
2013-01-13 14:27:00,52.9,37.6,30.16,WSW,248,0.0,0.0,56,0.00,OVC,,0.00,0.0,WeatherDisplay:10.37,2013-01-13 22:27:00,
2013-01-13 14:32:00,53.1,37.8,30.16,WSW,248,0.0,0.0,56,0.00,OVC,,0.00,0.0,WeatherDisplay:10.37,2013-01-13 22:32:00,
2013-01-13 14:37:00,52.9,37.1,30.16,WSW,248,0.0,0.0,55,0.00,OVC,,0.00,0.0,WeatherDisplay:10.37,2013-01-13 22:37:00,
2013-01-13 14:42:00,52.5,36.8,30.16,WSW,248,0.0,0.0,55,0.00,OVC,,0.00,0.0,WeatherDisplay:10.37,2013-01-13 22:42:00,
2013-01-13 14:47:00,52.7,37.4,30.16,WSW,248,0.0,0.0,56,0.00,OVC,,0.00,0.0,WeatherDisplay:10.37,2013-01-13 22:47:00,
2013-01-13 14:52:00,52.3,37.1,30.16,WSW,248,0.0,0.0,56,0.00,OVC,,0.00,0.0,WeatherDisplay:10.37,2013-01-13 22:52:00,
2013-01-13 14:57:00,52.3,37.1,30.16,WSW,248,0.0,0.0,56,0.00,OVC,,0.00,0.0,WeatherDisplay:10.37,2013-01-13 22:57:00,
2013-01-13 15:03:00,52.3,36.6,30.16,WSW,248,0.0,0.0,55,0.00,OVC,,0.00,0.0,WeatherDisplay:10.37,2013-01-13 23:03:00,
2013-01-13 15:08:00,52.2,36.5,30.16,WSW,248,0.0,0.0,55,0.00,OVC,,0.00,0.0,WeatherDisplay:10.37,2013-01-13 23:08:00,
2013-01-13 15:13:00,52.3,37.1,30.16,WSW,248,0.0,0.0,56,0.00,OVC,,0.00,0.0,WeatherDisplay:10.37,2013-01-13 23:13:00,
2013-01-13 15:18:00,52.2,36.0,30.16,WSW,248,0.0,0.0,54,0.00,OVC,,0.00,0.0,WeatherDisplay:10.37,2013-01-13 23:18:00,
2013-01-13 15:23:00,52.0,35.8,30.16,WSW,248,0.0,0.0,54,0.00,OVC,,0.00,0.0,WeatherDisplay:10.37,2013-01-13 23:23:00,
2013-01-13 15:28:00,52.0,35.8,30.16,WSW,248,0.0,0.0,54,0.00,OVC,,0.00,0.0,WeatherDisplay:10.37,2013-01-13 23:28:00,
2013-01-13 15:33:00,51.6,35.0,30.16,WSW,248,0.0,0.0,53,0.00,OVC,,0.00,0.0,WeatherDisplay:10.37,2013-01-13 23:33:00,
2013-01-13 15:38:00,51.6,35.0,30.16,WSW,248,0.0,0.0,53,0.00,OVC,,0.00,0.0,WeatherDisplay:10.37,2013-01-13 23:38:00,
2013-01-13 15:43:00,51.8,35.2,30.16,WSW,248,0.0,0.0,53,0.00,OVC,,0.00,0.0,WeatherDisplay:10.37,2013-01-13 23:43:00,
2013-01-13 15:48:00,52.0,34.9,30.17,WSW,248,0.0,0.0,52,0.00,OVC,,0.00,0.0,WeatherDisplay:10.37,2013-01-13 23:48:00,
2013-01-13 15:54:00,51.6,34.1,30.17,WSW,248,0.0,0.0,51,0.00,OVC,,0.00,0.0,WeatherDisplay:10.37,2013-01-13 23:54:00,
2013-01-13 15:59:00,51.6,33.6,30.17,WSW,248,0.0,0.0,50,0.00,OVC,,0.00,0.0,WeatherDisplay:10.37,2013-01-13 23:59:00,
2013-01-13 16:04:00,51.3,34.7,30.17,WSW,248,0.0,0.0,53,0.00,OVC,,0.00,0.0,WeatherDisplay:10.37,2013-01-14 00:04:00,
2013-01-13 16:09:00,51.3,35.2,30.15,WSW,248,0.0,0.0,54,0.00,OVC,,0.00,0.0,WeatherDisplay:10.37,2013-01-14 00:09:00,
2013-01-13 16:14:00,51.3,33.7,30.15,WSW,248,0.0,0.0,51,0.00,OVC,,0.00,0.0,WeatherDisplay:10.37,2013-01-14 00:14:00,
2013-01-13 16:19:00,51.4,32.4,30.15,WSW,248,0.0,0.0,48,0.00,OVC,,0.00,0.0,WeatherDisplay:10.37,2013-01-14 00:19:00,
2013-01-13 16:24:00,51.6,30.9,30.15,WSW,248,0.0,0.0,45,0.00,OVC,,0.00,0.0,WeatherDisplay:10.37,2013-01-14 00:24:00,
2013-01-13 16:29:00,51.3,30.1,30.15,WSW,248,0.0,0.0,44,0.00,OVC,,0.00,0.0,WeatherDisplay:10.37,2013-01-14 00:29:00,
2013-01-13 16:34:00,51.1,29.9,30.15,WSW,248,0.0,0.0,44,0.00,OVC,,0.00,0.0,WeatherDisplay:10.37,2013-01-14 00:34:00,
2013-01-13 16:39:00,50.7,30.1,30.15,WSW,248,0.0,0.0,45,0.00,OVC,,0.00,0.0,WeatherDisplay:10.37,2013-01-14 00:39:00,
2013-01-13 16:44:00,50.7,30.1,30.15,WSW,248,0.0,0.0,45,0.00,OVC,,0.00,0.0,WeatherDisplay:10.37,2013-01-14 00:44:00,
2013-01-13 16:49:00,50.5,30.5,30.16,WSW,248,0.0,0.0,46,0.00,OVC,,0.00,0.0,WeatherDisplay:10.37,2013-01-14 00:49:00,
2013-01-13 16:55:00,50.5,30.0,30.16,WSW,248,0.0,0.0,45,0.00,OVC,,0.00,0.0,WeatherDisplay:10.37,2013-01-14 00:55:00,
2013-01-13 17:00:00,50.0,30.0,30.16,WSW,248,0.0,0.0,46,0.00,OVC,,0.00,0.0,WeatherDisplay:10.37,2013-01-14 01:00:00,
2013-01-13 17:05:00,49.8,29.8,30.16,WSW,248,0.0,0.0,46,0.00,OVC,,0.00,0.0,WeatherDisplay:10.37,2013-01-14 01:05:00,
2013-01-13 17:10:00,49.6,30.2,30.17,WSW,248,0.0,0.0,47,0.00,OVC,,0.00,0.0,WeatherDisplay:10.37,2013-01-14 01:10:00,
2013-01-13 17:15:00,49.5,30.0,30.17,WSW,248,0.0,0.0,47,0.00,OVC,,0.00,0.0,WeatherDisplay:10.37,2013-01-14 01:15:00,
2013-01-13 17:20:00,49.1,29.7,30.17,WSW,248,0.0,0.0,47,0.00,OVC,,0.00,0.0,WeatherDisplay:10.37,2013-01-14 01:20:00,
2013-01-13 17:25:00,49.1,29.2,30.17,WSW,248,0.0,0.0,46,0.00,OVC,,0.00,0.0,WeatherDisplay:10.37,2013-01-14 01:25:00,
2013-01-13 17:30:00,48.6,28.7,30.16,WSW,248,0.0,0.0,46,0.00,OVC,,0.00,0.0,WeatherDisplay:10.37,2013-01-14 01:30:00,
2013-01-13 17:36:00,48.7,28.3,30.16,WSW,248,0.0,0.0,45,0.00,OVC,,0.00,0.0,WeatherDisplay:10.37,2013-01-14 01:36:00,
2013-01-13 17:41:00,48.6,28.2,30.16,WSW,248,0.0,0.0,45,0.00,OVC,,0.00,0.0,WeatherDisplay:10.37,2013-01-14 01:41:00,
2013-01-13 17:46:00,48.4,27.4,30.17,WSW,248,0.0,0.0,44,0.00,CLR,,0.00,0.0,WeatherDisplay:10.37,2013-01-14 01:46:00,
2013-01-13 17:51:00,48.4,28.0,30.17,WSW,248,0.0,0.0,45,0.00,CLR,,0.00,0.0,WeatherDisplay:10.37,2013-01-14 01:51:00,
2013-01-13 17:56:00,48.2,27.8,30.17,WSW,248,0.0,0.0,45,0.00,CLR,,0.00,0.0,WeatherDisplay:10.37,2013-01-14 01:56:00,
2013-01-13 18:01:00,48.0,27.1,30.17,WSW,248,0.0,0.0,44,0.00,CLR,,0.00,0.0,WeatherDisplay:10.37,2013-01-14 02:01:00,
2013-01-13 18:06:00,48.0,27.1,30.16,WSW,248,0.0,0.0,44,0.00,CLR,,0.00,0.0,WeatherDisplay:10.37,2013-01-14 02:06:00,
2013-01-13 18:11:00,47.8,27.0,30.16,WSW,248,0.0,0.0,44,0.00,CLR,,0.00,0.0,WeatherDisplay:10.37,2013-01-14 02:11:00,
2013-01-13 18:16:00,47.7,27.3,30.16,WSW,248,0.0,0.0,45,0.00,CLR,,0.00,0.0,WeatherDisplay:10.37,2013-01-14 02:16:00,
2013-01-13 18:21:00,47.7,27.3,30.16,WSW,248,0.0,0.0,45,0.00,CLR,,0.00,0.0,WeatherDisplay:10.37,2013-01-14 02:21:00,
2013-01-13 18:26:00,47.3,27.0,30.16,WSW,248,0.0,0.0,45,0.00,CLR,,0.00,0.0,WeatherDisplay:10.37,2013-01-14 02:26:00,
2013-01-13 18:31:00,47.3,26.5,30.16,WSW,248,0.0,0.0,44,0.00,CLR,,0.00,0.0,WeatherDisplay:10.37,2013-01-14 02:31:00,
2013-01-13 18:36:00,47.1,26.8,30.16,WSW,248,0.0,0.0,45,0.00,CLR,,0.00,0.0,WeatherDisplay:10.37,2013-01-14 02:36:00,
2013-01-13 18:41:00,47.1,26.8,30.16,WSW,248,0.0,0.0,45,0.00,CLR,,0.00,0.0,WeatherDisplay:10.37,2013-01-14 02:41:00,
2013-01-13 18:46:00,46.9,27.2,30.16,WSW,248,0.0,0.0,46,0.00,CLR,,0.00,0.0,WeatherDisplay:10.37,2013-01-14 02:46:00,
2013-01-13 18:52:00,46.8,27.0,30.16,WSW,248,0.0,0.0,46,0.00,CLR,,0.00,0.0,WeatherDisplay:10.37,2013-01-14 02:52:00,
2013-01-13 18:57:00,46.6,26.9,30.16,WSW,248,0.0,0.0,46,0.00,CLR,,0.00,0.0,WeatherDisplay:10.37,2013-01-14 02:57:00,
2013-01-13 19:02:00,46.4,27.8,30.16,WSW,248,0.0,0.0,48,0.00,CLR,,0.00,0.0,WeatherDisplay:10.37,2013-01-14 03:02:00,
2013-01-13 19:07:00,46.4,27.8,30.17,WSW,248,0.0,0.0,48,0.00,CLR,,0.00,0.0,WeatherDisplay:10.37,2013-01-14 03:07:00,
2013-01-13 19:12:00,46.2,29.5,30.17,WSW,248,0.0,0.0,52,0.00,CLR,,0.00,0.0,WeatherDisplay:10.37,2013-01-14 03:12:00,
2013-01-13 19:17:00,45.9,29.7,30.17,WSW,248,0.0,0.0,53,0.00,CLR,,0.00,0.0,WeatherDisplay:10.37,2013-01-14 03:17:00,
2013-01-13 19:22:00,45.9,30.6,30.17,WSW,248,0.0,0.0,55,0.00,CLR,,0.00,0.0,WeatherDisplay:10.37,2013-01-14 03:22:00,
2013-01-13 19:27:00,45.5,30.7,30.17,WSW,248,0.0,0.0,56,0.00,CLR,,0.00,0.0,WeatherDisplay:10.37,2013-01-14 03:27:00,
2013-01-13 19:32:00,45.3,31.0,30.17,WSW,248,0.0,0.0,57,0.00,CLR,,0.00,0.0,WeatherDisplay:10.37,2013-01-14 03:32:00,
2013-01-13 19:37:00,45.1,30.4,30.17,WSW,248,0.0,0.0,56,0.00,CLR,,0.00,0.0,WeatherDisplay:10.37,2013-01-14 03:37:00,
2013-01-13 19:42:00,45.0,30.6,30.17,WSW,248,0.0,0.0,57,0.00,CLR,,0.00,0.0,WeatherDisplay:10.37,2013-01-14 03:42:00,
2013-01-13 19:47:00,45.0,31.1,30.17,WSW,248,0.0,0.0,58,0.00,CLR,,0.00,0.0,WeatherDisplay:10.37,2013-01-14 03:47:00,
2013-01-13 19:52:00,44.8,31.3,30.17,WSW,248,0.0,0.0,59,0.00,CLR,,0.00,0.0,WeatherDisplay:10.37,2013-01-14 03:52:00,
2013-01-13 19:58:00,44.6,32.0,30.17,WSW,248,0.0,0.0,61,0.00,CLR,,0.00,0.0,WeatherDisplay:10.37,2013-01-14 03:58:00,
2013-01-13 20:03:00,44.6,31.1,30.17,WSW,248,0.0,0.0,59,0.00,CLR,,0.00,0.0,WeatherDisplay:10.37,2013-01-14 04:03:00,
2013-01-13 20:08:00,44.4,30.6,30.17,WSW,248,0.0,0.0,58,0.00,CLR,,0.00,0.0,WeatherDisplay:10.37,2013-01-14 04:08:00,
2013-01-13 20:13:00,44.2,30.8,30.17,WSW,248,0.0,0.0,59,0.00,CLR,,0.00,0.0,WeatherDisplay:10.37,2013-01-14 04:13:00,
2013-01-13 20:19:00,44.1,30.6,30.17,WSW,248,0.0,0.0,59,0.00,CLR,,0.00,0.0,WeatherDisplay:10.37,2013-01-14 04:19:00,
2013-01-13 20:24:00,43.9,30.9,30.17,WSW,248,0.0,0.0,60,0.00,CLR,,0.00,0.0,WeatherDisplay:10.37,2013-01-14 04:24:00,
2013-01-13 20:29:00,43.7,30.7,30.19,WSW,248,0.0,0.0,60,0.00,CLR,,0.00,0.0,WeatherDisplay:10.37,2013-01-14 04:29:00,
2013-01-13 20:34:00,43.7,31.1,30.19,WSW,248,0.0,0.0,61,0.00,CLR,,0.00,0.0,WeatherDisplay:10.37,2013-01-14 04:34:00,
2013-01-13 20:39:00,43.5,31.0,30.19,WSW,248,0.0,0.0,61,0.00,CLR,,0.00,0.0,WeatherDisplay:10.37,2013-01-14 04:39:00,
2013-01-13 20:45:00,43.3,31.6,30.19,WSW,248,0.0,0.0,63,0.00,CLR,,0.00,0.0,WeatherDisplay:10.37,2013-01-14 04:45:00,
2013-01-13 20:50:00,43.3,32.7,30.18,WSW,248,0.0,0.0,66,0.00,CLR,,0.00,0.0,WeatherDisplay:10.37,2013-01-14 04:50:00,
2013-01-13 20:55:00,43.3,32.4,30.18,WSW,248,0.0,0.0,65,0.00,CLR,,0.00,0.0,WeatherDisplay:10.37,2013-01-14 04:55:00,
2013-01-13 21:01:00,43.0,32.0,30.18,WSW,248,0.0,0.0,65,0.00,CLR,,0.00,0.0,WeatherDisplay:10.37,2013-01-14 05:01:00,
2013-01-13 21:03:00,42.8,31.8,30.18,WSW,248,0.0,0.0,65,0.00,CLR,,0.00,0.0,WeatherDisplay:10.37,2013-01-14 05:03:00,
2013-01-13 21:04:00,42.6,31.7,30.18,WSW,248,0.0,0.0,65,0.00,CLR,,0.00,0.0,WeatherDisplay:10.37,2013-01-14 05:04:00,
2013-01-13 21:10:00,42.3,31.3,30.18,WSW,248,0.0,0.0,65,0.00,CLR,,0.00,0.0,WeatherDisplay:10.37,2013-01-14 05:10:00,
2013-01-13 21:15:00,42.3,31.3,30.18,WSW,248,0.0,0.0,65,0.00,CLR,,0.00,0.0,WeatherDisplay:10.37,2013-01-14 05:15:00,
2013-01-13 21:20:00,41.9,31.7,30.18,WSW,248,0.0,0.0,67,0.00,CLR,,0.00,0.0,WeatherDisplay:10.37,2013-01-14 05:20:00,
2013-01-13 21:25:00,41.9,32.1,30.18,WSW,248,0.0,0.0,68,0.00,CLR,,0.00,0.0,WeatherDisplay:10.37,2013-01-14 05:25:00,
2013-01-13 21:30:00,41.9,32.8,30.18,WSW,248,0.0,0.0,70,0.00,CLR,,0.00,0.0,WeatherDisplay:10.37,2013-01-14 05:30:00,
2013-01-13 21:35:00,41.9,33.2,30.18,WSW,248,0.0,0.0,71,0.00,CLR,,0.00,0.0,WeatherDisplay:10.37,2013-01-14 05:35:00,
2013-01-13 21:41:00,41.9,33.2,30.18,WSW,248,0.0,0.0,71,0.00,CLR,,0.00,0.0,WeatherDisplay:10.37,2013-01-14 05:41:00,
2013-01-13 21:46:00,41.4,32.7,30.18,WSW,248,0.0,0.0,71,0.00,CLR,,0.00,0.0,WeatherDisplay:10.37,2013-01-14 05:46:00,
2013-01-13 21:51:00,41.4,32.7,30.18,WSW,248,0.0,0.0,71,0.00,CLR,,0.00,0.0,WeatherDisplay:10.37,2013-01-14 05:51:00,
2013-01-13 21:56:00,41.0,32.3,30.18,WSW,248,0.0,0.0,71,0.00,CLR,,0.00,0.0,WeatherDisplay:10.37,2013-01-14 05:56:00,
2013-01-13 22:01:00,40.8,32.1,30.18,WSW,248,0.0,0.0,71,0.00,CLR,,0.00,0.0,WeatherDisplay:10.37,2013-01-14 06:01:00,
2013-01-13 22:06:00,40.6,32.0,30.17,WSW,248,0.0,0.0,71,0.00,CLR,,0.00,0.0,WeatherDisplay:10.37,2013-01-14 06:06:00,
2013-01-13 22:11:00,40.5,31.8,30.17,WSW,248,0.0,0.0,71,0.00,CLR,,0.00,0.0,WeatherDisplay:10.37,2013-01-14 06:11:00,
2013-01-13 22:16:00,40.3,31.6,30.17,WSW,248,0.0,0.0,71,0.00,CLR,,0.00,0.0,WeatherDisplay:10.37,2013-01-14 06:16:00,
2013-01-13 22:21:00,40.3,31.3,30.17,WSW,248,0.0,0.0,70,0.00,CLR,,0.00,0.0,WeatherDisplay:10.37,2013-01-14 06:21:00,
2013-01-13 22:26:00,40.1,31.1,30.18,WSW,248,0.0,0.0,70,0.00,CLR,,0.00,0.0,WeatherDisplay:10.37,2013-01-14 06:26:00,
2013-01-13 22:31:00,39.9,30.9,30.18,WSW,248,0.0,0.0,70,0.00,CLR,,0.00,0.0,WeatherDisplay:10.37,2013-01-14 06:31:00,
2013-01-13 22:37:00,39.7,30.8,30.18,WSW,248,0.0,0.0,70,0.00,CLR,,0.00,0.0,WeatherDisplay:10.37,2013-01-14 06:37:00,
2013-01-13 22:42:00,39.4,30.4,30.18,WSW,248,0.0,0.0,70,0.00,CLR,,0.00,0.0,WeatherDisplay:10.37,2013-01-14 06:42:00,
2013-01-13 22:47:00,39.4,30.4,30.20,WSW,248,0.0,0.0,70,0.00,CLR,,0.00,0.0,WeatherDisplay:10.37,2013-01-14 06:47:00,
2013-01-13 22:52:00,39.2,30.6,30.20,WSW,248,0.0,0.0,71,0.00,CLR,,0.00,0.0,WeatherDisplay:10.37,2013-01-14 06:52:00,
2013-01-13 22:57:00,39.0,30.4,30.20,WSW,248,0.0,0.0,71,0.00,CLR,,0.00,0.0,WeatherDisplay:10.37,2013-01-14 06:57:00,
2013-01-13 23:02:00,39.0,30.4,30.20,WSW,248,0.0,0.0,71,0.00,CLR,,0.00,0.0,WeatherDisplay:10.37,2013-01-14 07:02:00,
2013-01-13 23:08:00,38.7,29.7,30.19,WSW,248,0.0,0.0,70,0.00,CLR,,0.00,0.0,WeatherDisplay:10.37,2013-01-14 07:08:00,
2013-01-13 23:13:00,38.7,30.1,30.19,WSW,248,0.0,0.0,71,0.00,CLR,,0.00,0.0,WeatherDisplay:10.37,2013-01-14 07:13:00,
2013-01-13 23:18:00,38.5,29.9,30.19,WSW,248,0.0,0.0,71,0.00,CLR,,0.00,0.0,WeatherDisplay:10.37,2013-01-14 07:18:00,
2013-01-13 23:23:00,38.7,30.1,30.19,WSW,248,0.0,0.0,71,0.00,CLR,,0.00,0.0,WeatherDisplay:10.37,2013-01-14 07:23:00,
2013-01-13 23:28:00,38.7,30.1,30.21,WSW,248,0.0,0.0,71,0.00,CLR,,0.00,0.0,WeatherDisplay:10.37,2013-01-14 07:28:00,
2013-01-13 23:33:00,38.5,29.9,30.21,WSW,248,0.0,0.0,71,0.00,CLR,,0.00,0.0,WeatherDisplay:10.37,2013-01-14 07:33:00,
2013-01-13 23:38:00,38.7,30.1,30.21,WSW,248,0.0,0.0,71,0.00,CLR,,0.00,0.0,WeatherDisplay:10.37,2013-01-14 07:38:00,
2013-01-13 23:43:00,38.5,29.5,30.21,WSW,248,0.0,0.0,70,0.00,CLR,,0.00,0.0,WeatherDisplay:10.37,2013-01-14 07:43:00,
2013-01-13 23:49:00,38.5,29.2,30.22,WSW,248,0.0,0.0,69,0.00,CLR,,0.00,0.0,WeatherDisplay:10.37,2013-01-14 07:49:00,
2013-01-13 23:54:00,38.3,29.0,30.22,WSW,248,0.0,0.0,69,0.00,CLR,,0.00,0.0,WeatherDisplay:10.37,2013-01-14 07:54:00,
2013-01-13 23:59:00,38.1,28.8,30.22,WSW,248,0.0,0.0,69,0.00,CLR,,0.00,0.0,WeatherDisplay:10.37,2013-01-14 07:59:00,